Regional Weather Roundup
Issued by NWS

Home | Current Version | Previous Version | Text Only | Print | Product List | Glossary On
Versions: 1 2 3 4 5 6 7 8 9 10 11 12 13 14 15 16 17 18 19 20 21 22 23 24 25 26 27 28 29 30 31 32 33 34 35 36 37 38 39 40 41 42 43 44 45 46 47 48 49 50
732
ASUS42 KKEY 210910
RWRKEY

FLORIDA REGIONAL WEATHER ROUNDUP FOR THE FLORIDA KEYS
NATIONAL WEATHER SERVICE KEY WEST FLORIDA
500 AM EDT THU SEP 21 2017

...SOUTH FLORIDA AND THE KEYS...

CITY           SKY/WX    TMP DP  RH WIND       PRES   REMARKS
FORT MYERS     CLOUDY    78  77  96 NE6       29.92F
SW REGIONAL AP CLEAR     78  75  90 NE6       29.93S
NAPLES         CLEAR     76  75  97 NE6       29.92F
MIAMI          PTCLDY    80  76  87 CALM      29.91F
WEST KENDALL   CLEAR     75  73  93 CALM      29.91F
HOMESTEAD      CLEAR     77  77 100 CALM      29.90F
MARATHON       PTCLDY    82  73  74 SE7       29.91F
BOCA CHICA NAS CLEAR     83  75  77 E7        29.91F HX  90
KEY WEST INTL  CLEAR     83  73  72 E6        29.92S

...INTERNATIONAL WEATHER...

CITY           SKY/WX    TMP DP  RH WIND       PRES   REMARKS
NASSAU BAHAMAS PTCLDY    82  77  83 CALM      29.91S HX  91
CANCUN MEXICO  PTCLDY    77  77 100 NW3       29.90F
COZUMEL MEXICO PTCLDY    77  75  94 CALM      29.87F

ADJACENT COASTAL WATERS...

STATION/POSITION TIME  SKY/WX   TEMP    WIND        PRES    WAVE
                                AIR SEA DIR/SP/G            HT/PER
                 (UTC)          (F)     (DEG/KT/KT) (MB)    (FT/S)
PULASKI SHOAL LI 0900            83      70/  8/  9 1013.0F
SAND KEY         0850            83                 1013.5F
LONG KEY         NOT AVBL
MOLASSES REEF    NOT AVBL
FOWEY ROCKS      0800            83 85   60/  2/  2 1013.8F
Buoy 42097       0830               85                N/A     1/ 3

$$




USA.gov is the U.S. government's official web portal to all federal, state and local government web resources and services.